DW8248 Weather Reports


time (UTC)temp
F
wind
direction
speed
knots
gust
knots
rain 1hr
in
rain 24hr
in
rain mn
in
humidity
%
barometer
mb
20260906153902 87 289 3.5 7.0 0.00 1.13 0.00 71 1012.9
20260906152854 87 265 5.2 7.8 0.00 1.13 0.00 72 1013.0
20260906151906 87 285 5.2 7.8 0.00 1.13 0.00 72 1013.1
20260906150853 87 273 5.2 9.6 0.00 1.13 0.00 74 1013.1
20260906145840 86 269 6.1 9.6 0.00 1.13 0.00 74 1013.1
20260906142559 85 288 2.6 7.0 0.00 1.13 0.00 79 1013.0
20260906140438 84 281 4.3 7.0 0.00 1.13 0.00 81 1013.0
20260906135402 83 289 5.2 7.0 0.00 1.13 0.00 82 1013.0
20260906134422 83 300 4.3 6.1 0.00 1.13 0.00 82 1013.0
20260906133422 83 265 5.2 7.0 0.00 1.13 0.00 84 1013.0
20260906132348 82 271 6.1 7.0 0.00 1.13 0.00 84 1013.1
20260906131314 81 269 6.1 7.0 0.00 1.13 0.00 84 1013.2
20260906124122 80 273 6.1 7.8 0.00 1.13 0.00 85 1012.8
20260906123139 80 294 7.0 8.7 0.00 1.13 0.00 85 1013.0
20260906122129 80 296 7.8 9.6 0.00 1.13 0.00 86 1012.8
20260906121119 80 284 8.7 10.4 0.00 1.13 0.00 86 1012.7
20260906120101 80 278 7.8 10.4 0.00 1.13 0.00 87 1012.8
20260906115039 79 275 7.8 9.6 0.00 1.13 0.00 86 1012.7
20260906114006 79 269 7.8 9.6 0.00 1.13 0.00 86 1012.6
20260906111811 80 280 8.7 11.3 0.00 1.13 0.00 85 1012.2
20260906105621 80 297 7.8 9.6 0.00 1.13 0.00 85 1011.8
20260906104549 79 289 7.0 8.7 0.00 1.13 0.00 85 1011.8
20260906103540 79 279 6.1 8.7 0.00 1.13 0.00 85 1011.6
20260906102556 79 288 6.1 8.7 0.00 1.13 0.00 86 1011.5
20260906101532 79 290 6.1 7.8 0.00 1.13 0.00 86 1011.4
20260906100525 79 300 4.3 7.0 0.00 1.13 0.00 86 1011.5
20260906095530 79 275 5.2 7.0 0.00 1.13 0.00 86 1011.4
20260906093405 79 278 4.3 7.0 0.00 1.13 0.00 86 1011.1
20260906092335 79 276 4.3 7.0 0.00 1.13 0.00 86 1011.1
20260906085015 78 259 7.8 9.6 0.00 1.13 0.00 86 1010.9
20260906084020 79 236 7.0 8.7 0.00 1.13 0.00 87 1010.8
20260906081857 79 227 7.8 10.4 0.00 1.13 0.00 86 1010.7
20260906080844 79 232 7.8 10.4 0.00 1.13 0.00 86 1010.7
20260906075812 79 233 8.7 10.4 0.00 1.13 0.00 86 1010.7
20260906074805 79 259 7.0 10.4 0.00 1.13 0.00 86 1010.8
20260906073816 79 257 7.8 10.4 0.00 1.13 0.00 86 1010.8
20260906072822 79 248 7.8 11.3 0.00 1.13 0.00 86 1011.0
20260906071805 79 242 8.7 11.3 0.00 1.13 0.00 86 1010.9
20260906070807 79 237 7.8 9.6 0.00 1.13 0.00 86 1011.0
20260906065803 79 226 7.0 9.6 0.00 1.13 0.00 86 1011.3
20260906064752 79 235 7.0 9.6 0.00 1.13 0.00 86 1011.4
20260906063724 79 226 7.0 10.4 0.00 1.13 0.00 87 1011.6
20260906062656 79 224 7.8 10.4 0.00 1.13 0.00 87 1011.8
20260906061644 79 223 6.1 8.7 0.00 1.13 0.00 86 1011.8
20260906060633 79 203 4.3 7.0 0.00 1.13 0.00 86 1012.2
20260906055604 79 217 6.1 8.7 0.00 1.13 0.00 86 1012.3
20260906054604 79 209 7.8 10.4 0.00 1.13 0.00 86 1012.1
20260906053528 79 210 7.8 10.4 0.00 1.13 0.00 86 1012.1
20260906052531 79 229 7.0 8.7 0.00 1.13 0.00 86 1012.3
20260906051521 79 217 6.1 8.7 0.00 1.13 0.00 87 1012.7
20260906050458 79 201 5.2 8.7 0.00 1.13 0.00 87 1012.7
20260906045500 79 216 5.2 8.7 0.00 1.13 0.00 88 1012.7
20260906044452 79 209 5.2 7.8 0.00 1.13 0.00 88 1012.5
20260906043451 79 190 6.1 8.7 0.00 1.13 0.00 87 1012.5
20260906042456 79 195 5.2 8.7 0.00 1.13 0.00 87 1012.6
20260906041504 79 221 0.0 7.8 0.00 1.13 0.00 87 1012.6
20260906040523 79 239 5.2 7.8 0.00 1.13 0.00 86 1012.6
20260906035528 79 223 4.3 7.0 0.00 1.13 1.13 86 1012.6
20260906034453 79 238 1.7 4.3 0.00 1.13 1.13 86 1012.5
20260906033448 79 223 3.5 5.2 0.00 1.13 1.13 86 1012.5
20260906032447 79 221 2.6 5.2 0.00 1.13 1.13 86 1012.5
20260906031420 79 215 4.3 7.8 0.00 1.13 1.13 86 1012.5
20260906030431 79 200 7.0 7.8 0.00 1.13 1.13 86 1012.6
20260906024229 80 191 7.8 10.4 0.00 1.13 1.13 84 1012.7
20260906023159 80 188 7.8 10.4 0.00 1.13 1.13 84 1012.9
20260906021012 80 124 1.7 7.0 0.00 1.13 1.13 83 1013.1
20260906020020 80 157 2.6 7.0 0.00 1.13 1.13 83 1013.1
20260906013909 79 165 2.6 9.6 0.00 1.13 1.13 83 1013.1
20260906012843 80 150 5.2 13.9 0.00 1.12 1.12 85 1013.2
20260906010718 80 176 7.8 12.2 0.00 1.12 1.12 82 1013.1
20260906004535 81 200 5.2 9.6 0.00 1.10 1.10 81 1012.6
20260906003512 82 118 4.3 7.8 0.00 1.10 1.10 76 1012.5
20260906002459 82 196 5.2 7.0 0.00 1.10 1.10 74 1012.5
20260906001517 81 198 5.2 7.8 0.00 1.10 1.10 74 1012.5
20260905235359 81 188 6.1 8.7 0.00 1.09 1.09 80 1012.4
20260905234411 80 198 6.1 10.4 0.00 1.09 1.09 81 1012.5
20260905233406 80 176 7.0 10.4 0.00 1.09 1.09 81 1012.3
20260905232349 78 165 4.3 7.8 0.06 1.09 1.09 83 1012.4
20260905231355 77 153 0.9 2.6 0.21 1.07 1.09 85 1012.4
20260905230355 76 219 4.3 15.6 0.68 1.02 1.03 84 1013.1
20260905224228 77 322 18.2 29.5 0.87 0.29 0.32 83 1014.4
20260905223215 81 334 13.9 29.5 0.00 0.08 0.08 79 1014.4
20260905222206 83 36 2.6 7.8 0.00 0.08 0.08 77 1012.8
20260905221201 84 118 2.6 7.8 0.00 0.08 0.08 76 1012.3
20260905220205 84 134 4.3 8.7 0.00 0.08 0.08 76 1012.3
20260905215154 84 98 7.0 12.2 0.00 0.08 0.08 77 1011.2
20260905214133 86 115 5.2 12.2 0.00 0.08 0.08 71 1011.6
20260905213124 86 112 5.2 13.0 0.00 0.08 0.08 67 1011.7
20260905212128 86 146 7.8 13.0 0.00 0.08 0.08 66 1011.5
20260905211120 86 148 7.0 12.2 0.00 0.08 0.08 70 1012.0
20260905210100 88 139 5.2 9.6 0.00 0.08 0.08 68 1012.0
20260905205027 87 105 3.5 9.6 0.00 0.08 0.08 69 1012.2
20260905204027 88 186 5.2 11.3 0.00 0.08 0.08 69 1012.1
20260905203023 87 135 6.1 11.3 0.00 0.08 0.08 70 1011.9
20260905202008 87 92 5.2 11.3 0.00 0.08 0.08 73 1011.8
20260905200950 86 137 6.1 11.3 0.00 0.08 0.08 77 1011.8
20260905195946 88 135 5.2 11.3 0.00 0.08 0.08 73 1011.9
20260905194925 88 74 5.2 9.6 0.00 0.08 0.08 77 1012.1
20260905193932 88 74 3.5 8.7 0.00 0.08 0.08 77 1011.9
20260905192916 89 96 3.5 7.8 0.00 0.08 0.08 74 1011.9
20260905191839 89 46 3.5 7.8 0.00 0.08 0.08 74 1012.2
20260905190830 90 42 1.7 7.8 0.00 0.08 0.08 71 1012.2
20260905185827 89 49 3.5 7.8 0.00 0.08 0.08 70 1012.2
20260905184803 90 122 2.6 4.3 0.00 0.08 0.08 63 1012.1
20260905183752 90 201 0.9 5.2 0.00 0.08 0.08 62 1012.1
20260905182734 89 189 2.6 19.1 0.08 0.08 0.08 62 1012.2
20260905181743 87 68 12.2 19.1 0.94 0.04 0.06 68 1012.5
20260905180801 91 284 5.2 8.7 0.00 0.00 0.00 63 1012.4
20260905175727 91 298 4.3 7.0 0.00 0.00 0.00 63 1012.5
20260905173545 91 241 0.9 4.3 0.00 0.00 0.00 64 1012.6
20260905172509 91 275 0.9 1.7 0.00 0.00 0.00 66 1012.8
20260905171444 90 267 1.7 8.7 0.00 0.00 0.00 67 1013.1
20260905170421 90 238 5.2 8.7 0.00 0.00 0.00 68 1013.2
20260905165406 90 232 5.2 8.7 0.00 0.00 0.00 66 1013.3
20260905164401 90 199 5.2 8.7 0.00 0.00 0.00 67 1013.5
20260905163340 89 226 5.2 8.7 0.00 0.00 0.00 67 1013.6
20260905162358 89 277 5.2 7.8 0.00 0.00 0.00 69 1013.7
20260905161327 89 209 3.5 7.0 0.00 0.00 0.00 70 1014.0
20260905160332 88 244 3.5 7.8 0.00 0.00 0.00 68 1014.0